Weather in Ul'yanovskoye

Russia / Chechen Republic     43°37′48″N   45°36′09″E
temp.,
°C
wind,
m/s
gust,
m/s
humid.,
%
clouds,
%
prec.,
mm/h
press.,
hPa
HPBL,
m
26 may, thu
thu2600:00+13w35696 0.0 102190
03:00+11w36755 0.0 1021106
06:00+12w35735 0.0 1022154
09:00+18wnw33517 0.0 1021683
12:00+21wnw333988 0.0 10211886
15:00+23wsw223528 0.0 10192319
18:00+21n234470 0.0 1019255
21:00+17ne33485 0.0 101932
27 may, fri
fri2700:00+16ese2258100 0.0 101819
03:00+14sw116435 0.0 101811
06:00+15wsw116598 0.0 101952
09:00+21wnw11469 0.0 1019690
12:00+24n11350 0.0 10181574
15:00+26nw22330 0.0 10172129
18:00+25w22417 0.0 1017806
21:00+20nnw35550 0.0 1018100
28 may, sat
sat2800:00+18n23560 0.0 101954
03:00+17n11610 0.0 101811
06:00+18se01620 0.0 101891
09:00+23e34490 0.0 1017786
12:00+27e67340 0.0 10151827
15:00+27e77330 0.0 10141683
18:00+24e57430 0.0 1014517
21:00+18e47610 0.0 1015239
29 may, sun
sun2900:00+15e34755 0.0 1014126
03:00+14e23810 0.0 101467
06:00+16e22785 0.0 1014141
09:00+21nnw225865 0.0 1014523
12:00+26nnw224481 0.0 10141059
15:00+29nnw22385 0.0 10131449
18:00+29w224414 0.0 1014165
21:00+23w346318 0.0 101566
30 may, mon
mon3000:00+21wnw22685 0.0 101513
03:00+20wsw22755 0.0 101522
06:00+21wnw22732 0.0 101594
09:00+26nnw11510 0.0 1015678
12:00+31ene34350 0.0 10141583
15:00+32e44320 0.0 10122013
18:00+28ese69360 0.0 1012392
21:00+22e47480 0.0 1013155